[ hide orbit diagram ]
For accurate long-term ephemerides, please instead use our Horizons system.This orbit viewer was implemented using two-body methods, and hence should not be used for determining accurate long-term trajectories (over several years or decades) or planetary encounter circumstances.
Orbital Elements at Epoch 2459000.5 (2020-May-31.0) TDB
Reference: JPL 21 (heliocentric ecliptic J2000)
Element | Value | Uncertainty (1-sigma) | Units |
e | .03611815326854099 | 4.3333e-08 | |
a | 2.873191427341147 | 1.6937e-08 | au |
q | 2.769417058998582 | 1.2754e-07 | au |
i | 2.825204959644144 | 5.2702e-06 | deg |
node | 172.9092030631664 | 7.8709e-05 | deg |
peri | 242.8407350648295 | 0.00010321 | deg |
M | 306.5972500061941 | 6.5039e-05 | deg |
tp | 2459264.379948600082 (2021-Feb-18.87994860) | 0.00032109 | TDB |
period | 1778.874337127733 4.87 | 1.573e-05 4.307e-08 | d yr |
n | .2023751720322614 | 1.7895e-09 | deg/d |
Q | 2.976965795683713 | 1.7549e-08 | au |
|
| | Orbit Determination Parameters
Additional Information
|
[ hide covariance matrix ]
Orbital Elements at Epoch 2457302.5 (2015-Oct-07.0) TDB
Reference: JPL 21 (heliocentric ecliptic J2000)
Element | Value | Uncertainty (1-sigma) | Units |
e | .03687322874544125 | 4.4852e-08 | |
q | 2.76868979428261 | 1.3187e-07 | au |
tp | 2457458.538435598031 (2016-Mar-11.03843560) | 0.00030647 | TDB |
node | 173.0464265254381 | 7.8625e-05 | deg |
peri | 237.6389203450117 | 0.00010097 | deg |
i | 2.826117812149782 | 5.2772e-06 | deg |
|
| | Orbit Determination Parameters
Additional Information
|
Orbit Covariance (6×6)
|
|
e |
q |
tp |
node |
peri |
i |
e |
2.011738594353746E-15 |
-5.870147647869682E-15 |
-5.229044305881833E-12 |
6.774170068735066E-15 |
-1.056828637550211E-12 |
-6.88616623232183E-16 |
q |
-5.870147647869682E-15 |
1.738913155663462E-14 |
1.429323942661114E-11 |
-2.015555609728289E-14 |
2.879526799374649E-12 |
2.130286488380567E-15 |
tp |
-5.229044305881833E-12 |
1.429323942661114E-11 |
9.392426411020671E-8 |
-2.482915073158667E-11 |
1.943238010149349E-8 |
3.545139426508542E-12 |
node |
6.774170068735066E-15 |
-2.015555609728289E-14 |
-2.482915073158667E-11 |
6.181859149690355E-9 |
-6.179070386427562E-9 |
1.555121691756988E-10 |
peri |
-1.056828637550211E-12 |
2.879526799374649E-12 |
1.943238010149349E-8 |
-6.179070386427562E-9 |
1.019576018999568E-8 |
-1.546091525512817E-10 |
i |
-6.88616623232183E-16 |
2.130286488380567E-15 |
3.545139426508542E-12 |
1.555121691756988E-10 |
-1.546091525512817E-10 |
2.784919693457576E-11 |
|
Physical Parameter Table
Parameter |
Symbol |
Value |
Units |
Sigma |
Reference |
Notes |
absolute magnitude |
H |
15.1 |
|
n/a |
MPO439713 |
|
diameter |
diameter |
3.795 |
km |
0.698 |
urn:nasa:pds:neowise_diameters_albedos::2.0[mainbelt] (http://adsabs.harvard.edu/abs/2011ApJ...741...68M) |
|
geometric albedo |
albedo |
0.123 |
|
0.036 |
urn:nasa:pds:neowise_diameters_albedos::2.0[mainbelt] (http://adsabs.harvard.edu/abs/2011ApJ...741...68M) |
|
|
105358 (2000 QO110) Discovered 2000-Aug-24 by LINEAR at Socorro |
Reference: 20051019/Numbers.arc | Last Updated: 2005-10-26 |
|
|